Location: Be?i?
(36.9044°N, 30.1006°E)
Time: 09:46:17
(UTC+00:00)

CZ-2D R/B - Pass Details

Date: 05 August 2024
Orbit: 791 x 842 km, 98.8° (Epoch: 14 September)

Event Time Altitude Azimuth Distance (km) Brightness Sun altitude
Rises 23:42:49 0° 17° (NNE) 3,319 6.4 -31.8°
Reaches altitude 10° 23:45:11 10° 21° (NNE) 2,391 5.4 -31.5°
Enters shadow 23:49:38 54° 64° (ENE) 981 2.7 -31.1°
